www.pogodaiklimat.ru
ПОГОДА в Шелтоне
Время
и дата
13:53 05.02
14:00 05.02
14:41 05.02
14:53 05.02
15:53 05.02
16:53 05.02
17:53 05.02
18:53 05.02
19:53 05.02
20:28 05.02
20:38 05.02
20:53 05.02
21:53 05.02
22:53 05.02
23:53 05.02
00:53 06.02
01:53 06.02
02:53 06.02
03:30 06.02
03:43 06.02
03:53 06.02
04:20 06.02
04:29 06.02
04:53 06.02
05:32 06.02
05:48 06.02
05:53 06.02
06:33 06.02
06:50 06.02
06:53 06.02
07:26 06.02
07:53 06.02
08:53 06.02
09:53 06.02
10:53 06.02
11:40 06.02
11:53 06.02
12:53 06.02
13:18 06.02
13:53 06.02
14:53 06.02
15:53 06.02
16:53 06.02
17:53 06.02
18:09 06.02
18:44 06.02
18:53 06.02
19:11 06.02
Ветер
(напр.,м/с)
Видим. Явления Облачность Т
(С)
Тd
(С)
f
(%)
Тe
(С)
Тes
(С)
Комфортность P
(гПа)
Po
(гПа)
Тmin
(С)
Tmax
(С)
R
(мм)
R24
(мм)
S
(см)
ЮЗ 5 16 км 8/8 330 m
[Ac]
+10.0 +8.3 89 +7 +7 1011.9 1001.9
ЮЗ 5 16 км 8/8 270 м +10.0 +7.8 86 +7 +7 1001.9
ЮЗ 7 16 км 10/2 360 m
[Ac]
+10.0 +7.2 83 +6 +6 1002.6
ЮЗ 8
{10}
16 км 10/5 450 m
[Ac]
+9.4 +7.2 86 +5 +5 1012.7 1002.6
ЮЗ 7 16 км 8/2 480 m
[Ac]
+10.0 +7.2 83 +6 +6 1014.1 1003.9 +7.2 +10.6 0.5
ЮЗ 8
{12}
16 км ясно +7.8 +5.6 86 +3 +3 1015.5 1005.3
З 8
{13}
16 км ясно +7.2 +5.0 86 +2 +2 1016.9 1006.6
ЮЗ 10
{14}
16 км ясно +6.7 +4.4 85 +1 +1 1018.5 1008.3
З 5
{9}
16 км 8/8 450 м +6.1 +3.9 86 +2 +2 1020.0 1009.6
З 6
{9}
16 км 8/8 420 м +5.6 +3.9 89 +1 +1 1010.3
ЮЗ 7
{11}
16 км 5/5 360 м +6.1 +3.9 86 +1 +1 1010.7
ЮЗ 6
{10}
16 км 2/2 360 м +5.6 +3.9 89 +1 +1 1021.2 1011.0
З 6
{9}
16 км ясно +6.1 +3.9 86 +1 +1 1022.5 1012.0 +5.6 +10.0
З 5
{10}
16 км ясно +6.1 +3.3 82 +2 +2 1023.5 1013.0
З 7
{11}
16 км 8/0 3300 m
[Ac]
+6.1 +3.3 82 +1 +1 1024.3 1014.0
З 8
{11}
16 км 10/0 2400 m
[Ac]
+6.1 +3.9 86 +1 +1 1025.4 1015.0
З 6 16 км 10/0 2850 m
[Ac]
+6.7 +3.9 82 +2 +2 1026.4 1016.0
ЮЗ 5 16 км 10/2 1650 m
[Ac]
+6.7 +4.4 85 +3 +3 1027.3 1017.0
ЮЗ 4 16 км 10/10 270 м +6.1 +5.0 93 +2 +2 1017.4
Ю 3 5 км слабый дождь, дымка 10/10 270 m
[Ns]
+6.1 +5.0 93 +3 +3 1017.4
Ю 2 5 км слабый дождь, дымка 10/10 300 m
[Ns]
+6.1 +5.6 97 +3 +3 1027.6 1017.4 +6.1 +6.7 6.4
Ю 2 6 км дымка 10/10 300 м +5.6 +5.6 100 +3 +3 1017.0
Ю 2 8 км слабый дождь, дымка 10/10 420 m
[Ns]
+6.1 +5.6 97 +3 +3 1017.0
Ю 2 5 км слабый дождь, дымка 10/10 240 m
[Ns]
+6.1 +5.6 97 +3 +3 1027.6 1017.0
штиль 0 11 км слабый дождь 10/10 150 m
[Ns]
+6.1 +5.6 97 +5 +5 1017.4
ЮЗ 2 11 км слабый дождь 10/10 180 m
[Ns]
+6.0 +6.0 100 +3 +3 1017.4
ЮЗ 2 16 км 10/10 180 м +6.1 +5.6 97 +3 +3 1027.8 1017.4
штиль 0 6 км слабый дождь, дымка 10/10 150 m
[Ns]
+6.1 +6.1 100 +5 +5 1017.7
ЮЗ 3 14 км слабый дождь 10/10 210 m
[Ns]
+7.0 +6.0 93 +4 +4 1017.7
ЮЗ 2 16 км слабый дождь 10/10 210 m
[Ns]
+6.7 +6.1 96 +4 +4 1028.1 1017.7 1.0
ЮЗ 3 13 км слабый дождь 10/10 300 m
[Ns]
+7.2 +6.7 97 +4 +4 1018.0
ЮЗ 5 16 км 10/10 300 м +7.8 +6.7 93 +4 +4 1028.4 1018.0
ЮЗ 5 16 км 10/10 330 м +8.3 +7.2 93 +5 +5 1028.5 1018.0
Ю 4 16 км 10/10 360 м +8.9 +7.2 89 +6 +6 1028.6 1018.4 +5.6 +8.9 1.5
ЮЗ 4 14 км 10/10 360 м +8.9 +7.8 93 +6 +6 1028.9 1018.4
ЮЗ 8
{12}
16 км 10/10 450 м +10.0 +7.8 86 +6 +6 1018.4
ЮЗ 8
{11}
16 км 10/10 450 м +10.0 +7.8 86 +6 +6 1028.8 1018.4
ЮЗ 7
{13}
16 км 10/10 600 м +9.4 +7.2 86 +5 +5 1028.5 1018.0 1.0
ЮЗ 8
{10}
16 км 8/8 420 м +10.0 +7.2 83 +6 +6 1018.0
ЮЗ 7
{11}
16 км 8/8 480 м +10.6 +7.2 79 +7 +7 1028.2 1017.7
ЮЗ 6
{9}
16 км 10/10 1800 м +9.4 +6.7 83 +6 +6 1028.3 1018.0
ЮЗ 6
{10}
16 км 10/10 1470 м +9.4 +6.1 80 +6 +6 1028.0 1017.7 +8.9 +10.6 1.0
ЮЗ 6 16 км 10/10 1020 м +8.9 +5.6 80 +5 +5 1027.6 1017.4
ЮЗ 3 16 км 10/10 600 м +8.3 +5.6 83 +6 +6 1027.3 1017.0
Ю 4 16 км 10/10 600 м +8.3 +5.6 83 +5 +5 1016.7
Ю 6
{8}
16 км 10/10 540 м +7.8 +6.1 89 +4 +4 1016.4
Ю 6
{9}
16 км 10/10 870 м +7.8 +5.6 86 +4 +4 1026.9 1016.4
Ю 6
{9}
14 км 10/10 900 м +7.8 +5.6 86 +4 +4 1016.4
Местоположение метеостанции Shelton Sanderson Field: широта 47.2381 долгота -123.1408 высота над уровнем моря 82 м.
В архиве по умолчанию представлена погода в Шелтоне за последние 1-2 суток. Обновление информации о фактической погоде в базе происходит ежечасно! Архивные данные за месяц целиком и за предыдущие месяцы Вы можете получить, выбрав интересующий диапазон дат из раскрывающегося списка и нажав кнопку "Ввод!".
Внимание! Архив погоды МЕТАР в базе сайта по станциям, не включенным в климатический монитор, хранится не более 60 дней. Нет смысла пытаться выбрать более раннюю дату.
*Определитесь, кто Вы:
Внимание! Время в таблицах - местное (без учета летнего времени). Для получения всемирного времени необходимо вычесть поправку, которая равна -8 ч.
Смотрите также архив погоды в соседних городах и на ближайших метеорологических станциях:
Партнеры нашего сайта:      
Пояснения к столбцам:
  • Ветер - указаны скорость ветра в м/с - средняя за 10 мин, порывы в срок и между сроками (в фигурных скобках) и направление, откуда дует ветер: С - северный,
  • СВ - северо-восточный, В - восточный, ЮВ - юго-восточный, Ю - южный, ЮЗ - юго-западный, З - западный, СЗ - северо-западный.
  • Видимость - горизонтальная дальность видимости в метрах или километрах. При видимости от 1 до 10 км при отсутствии осадков обычно наблюдается дымка, при ухудшении видимости до 1 км и менее - туман. В сухую погоду видимость может ухудшаться дымом, пылью или мглою.
  • Явления - указаны атмосферные явления, наблюдавшиеся в срок или в последний час перед сроком; фигурными скобками обозначены явления, наблюдавшиеся между сроками (за 1-3 часа до срока); квадратными скобками обозначены град или гололедные отложения с указанием их диаметра в мм.
  • Облачность - указаны через наклонную черту общая и нижняя облачность в баллах и высота нижней границы облаков в метрах; квадратными скобками обозначены формы облаков: Ci - перистые, Cs - перисто-слоистые, Cc - перисто-кучевые, Ac - высококучевые, As - высокослоистые, Sc - слоисто-кучевые, Ns - слоисто-дождевые, Cu - кучевые, Cb - кучево-дождевые. Подробнее классификацию облаков см. в Атласе облаков (PDF).
  • T - Температура воздуха - температура, измеренная на высоте 2 м над землей.
  • Td - Температура точки росы - температура, при понижении до которой содержащийся в воздухе водяной пар достигнет насыщения.
  • f - Относительная влажность воздуха - влажноcть воздуха, измеренная на высоте 2 м над землей.
  • Te - Эффективная температура - температура, которую ощущает одетый по сезону человек в тени. Характеристика душности погоды. При расчете учитывается влияние влажности воздуха и скорости ветра на теплоощущения человека.
  • Tes - Эффективная температура на солнце - температура, которую ощущает человек, с поправкой на солнечный нагрев. Характеристика знойности погоды. Зависит от высоты солнца над горизонтом, облачности и скорости ветра. Ночью, в пасмурную погоду, а также при ветре 12 м/с и более поправка равна нулю.
  • P - Атмосферное давление - приведенное к уровню моря атмосферное давление.
  • Po - Атмосферное давление - измеренное на уровне метеостанции атмосферное давление.
  • Tmin - Минимальная температура - минимум температуры воздуха на высоте 2 м над землей.
  • Tmax - Максимальная температура - максимум температуры воздуха на высоте 2 м над землей.
  • R - Количество осадков - Количество выпавших осадков за период времени, мм. При наведении курсора мыши на число - период времени, за который выпало указанное количество осадков.
  • R24 - Количество осадков - Количество выпавших осадков за 24 часа, мм.
  • S - Снежный покров - Высота снежного покрова, см. При наведении курсора мыши на число - состояние снежного покрова и степень покрытия местности в баллах.